Location: Windsor
(43.2292°N, 89.3015°W)
Time: 10:12:09
(UTC+00:00)

Tiros 1 - Pass Details

Date: 03 June 2022
Orbit: 629 x 663 km, 48.4° (Epoch: 04 July)

Event Time Altitude Azimuth Distance (km) Brightness Sun altitude
Rises 07:23:09 0° 290° (WNW) 2,917 10.5 -21.4°
Reaches altitude 10° 07:25:32 10° 295° (WNW) 2,011 9.7 -21.2°
Maximum altitude 07:30:02 50° 12° (NNE) 806 8.0 -20.9°
Drops below altitude 10° 07:34:35 10° 88° (E) 2,024 10.0 -20.6°
Sets 07:36:58 0° 94° (E) 2,937 10.8 -20.4°
